Tracking 19164 objects as of 20-May-2018
HD Live streaming from Space Station
objects crossing your sky now

COSMOS 1652 (GLONASS)

Track COSMOS 1652 (GLONASS) now!
COSMOS 1652 (GLONASS) is classified as:


NORAD ID: 15699
Int'l Code: 1985-037C
Perigee: 19,097.4 km
Apogee: 19,182.2 km
Inclination: 64.1 °
Period: 675.8 minutes
Semi major axis: 25510 km
RCS: 0.3 m2 (medium)
Launch date: May 17, 1985
Source: Commonwealth of Independent States (former USSR) (CIS)
Launch site: TYURATAM MISSILE AND SPACE COMPLEX (TTMTR)
SV:
aabbcc
Your satellite tracking list
Your tracking list is empty




NASA's NSSDC Master Catalog

Two Line Element Set (TLE):
1 15699U 85037C   18140.41932049 +.00000057 +00000-0 +00000-0 0  9991
2 15699 064.0912 174.5029 0016631 012.7545 074.0663 02.13067441256819
Source of the keplerian elements: AFSPC